This is the latest recevied weather packets stored in our database for station/object IZ8NVY-10. If no packets are shown the sender has not sent any weather packets the latest 10 day(s).
| Time | Temp. | Humidity | Pressure | Rain* | Wind** | Luminosity | Snow |
|---|---|---|---|---|---|---|---|
| 1778087624 | 21.67° C | 50% | 977.5 hPa | - | - | - | - |
| 1778084024 | 23.89° C | 44% | 977.7 hPa | - | - | - | - |
| 1778080425 | 27.22° C | 36% | 977.1 hPa | - | - | - | - |
| 1778076825 | 30° C | 32% | 976.8 hPa | - | - | - | - |
| 1778073224 | 30° C | 33% | 977.2 hPa | - | - | - | - |
| 1778069623 | 29.44° C | 33% | 977.5 hPa | - | - | - | - |
| 1778066022 | 27.78° C | 41% | 977.4 hPa | - | - | - | - |
| 1778062421 | 28.89° C | 40% | 977.7 hPa | - | - | - | - |
| 1778058824 | 28.33° C | 42% | 978 hPa | - | - | - | - |
| 1778055224 | 23.89° C | 49% | 978.2 hPa | - | - | - | - |
| 1778051622 | 22.78° C | 50% | 978.2 hPa | - | - | - | - |
| 1778048021 | 19.44° C | 55% | 978.5 hPa | - | - | - | - |
| 1778044422 | 17.22° C | 57% | 978.4 hPa | - | - | - | - |
| 1778040821 | 16.11° C | 58% | 977.9 hPa | - | - | - | - |
| 1778037222 | 16.11° C | 57% | 978 hPa | - | - | - | - |
| 1778033620 | 16.67° C | 58% | 978 hPa | - | - | - | - |
| 1778030019 | 16.11° C | 59% | 978.4 hPa | - | - | - | - |
| 1778026419 | 16.11° C | 57% | 978.8 hPa | - | - | - | - |
| 1778022822 | 15° C | 56% | 979.3 hPa | - | - | - | - |
| 1778019216 | 16.11° C | 54% | 979.6 hPa | - | - | - | - |
| 1778015619 | 17.78° C | 51% | 979.8 hPa | - | - | - | - |
| 1778012019 | 17.78° C | 47% | 979.9 hPa | - | - | - | - |
| 1778008418 | 18.33° C | 47% | 979.7 hPa | - | - | - | - |
| 1778004817 | 18.89° C | 44% | 979.4 hPa | - | - | - | - |
| 1778001217 | 20.56° C | 41% | 979.3 hPa | - | - | - | - |
* Rain since midnight (hover to see other rain measurements)
** Current wind speed in m/s (hover to see current wind gust speed)